{"data":{"norad_id":62243,"intl_designator":"2024-232G","name":"QIANFAN-42","alt_names":[],"object_type":"PAYLOAD","status":"ACTIVE","operator":null,"country":"PRC","launch_date":"2024-12-05","launch_site_code":"TAISC","launch_vehicle":null,"mission":null,"orbit_class":"UNKNOWN","rcs_meters":null,"size_class":null,"mass_kg":null,"dimensions":null,"purposes":[],"wikipedia_slug":null,"has_3d_model":false,"image_url":null,"decayed_at":null,"tle_current":{"epoch":"2026-05-25T03:47:17.527200Z","epoch_age_seconds":54621,"freshness":"FRESH","line1":"1 62243U 24232G   26145.15784175  .00000316  00000+0  12995-3 0  9994","line2":"2 62243  89.0079  18.7591 0012624 271.5896  88.3851 14.24601843124638","mean_motion":14.24601843,"eccentricity":0.0012624,"inclination_deg":89.0079,"raan_deg":18.7591,"arg_perigee_deg":271.5896,"mean_anomaly_deg":88.3851,"bstar":0.00012995,"rev_number":12463,"period_min":101.08087442647,"perigee_km":800.75754408284,"apogee_km":818.90572729422,"semimajor_km":7187.9686356885,"source":"CELESTRAK","updated_at":"2026-05-25T13:38:02.866576Z"}}}